GPM-CORE

Last updated on Mon Nov 03 2025 00:02:35 GMT+0000 (Coordinated Universal Time)

1 39574U 14009C 25306.48708139 .00014578 00000+0 32042-3 0 9996 2 39574 64.9768 347.5122 0011404 262.2129 97.7717 15.44162408662791
UTC large
Height (km)
Speed (km/s)
/
Latitude / Longitude
Inclination (degrees)
Orbital Period (minutes)
Azimuth
Elevation
Range (km)
Doppler Factor

Next 0 passes for location: London (51.5072 / 0.1276)

Sorry there are no passes over London.